Retour au catalogue

FLOCK 4G 4

ActifScienceSSO
NORAD 62659·PAYLOAD·🇺🇸 United States

Lancé Jan 14, 2025 depuis Vandenberg Space Force Base

Loading…

Prochains Passages (prochaines 24 heures)

TLE

FraisSource: Space-Track

Époque: Sep 14, 2026, 04:19 UTC

1 62659U 25009BC  26257.18051479  .00031386  00000-0  89180-3 0  9991
2 62659  97.3886 338.4772 0002479  12.0693 348.0609 15.36114192150142

Suivez FLOCK 4G 4 en temps réel avec AllMySat

Download on the App Store